Location: Équennes
(49.7375°N, 1.9622°E)
Time: 00:30:10
(UTC+00:00)

Lacrosse 5 - Pass Details

Date: 28 January 2023
Orbit: 714 x 724 km, 57.0° (Epoch: 09 March)

Event Time Altitude Azimuth Distance (km) Brightness Sun altitude
Rises 18:37:35 0° 183° (S) 3,122 5.3 -18.9°
Reaches altitude 10° 18:40:39 10° 164° (SSE) 2,207 4.3 -19.4°
Enters shadow 18:42:20 15° 146° (SSE) 1,868 3.7 -19.7°
